Pacific - Georgia Basin: Past 24 Hour Conditions

 

Vancouver Int'l Airport

05:00 AM PST 23 November 2014
This table is a summary of hourly weather conditions for the past 24 hours.
Date / Time
(PST)
Wind(knots) Conditions Visibility(km) Pressure(kPa) Air tempC) Relative humidity(%) Dew pointC)
23 November 2014
5:00 SE 11 gust 17 Light Rain 13 101.5 7 92 6
4:00 SE 13 gust 22 Light Rain 16 101.5 8 91 6
3:00 SE 14 gust 22 Light Rain 19 101.7 8 95 7
2:00 E 10 Light Rain 16 101.8 7 93 6
1:00 ENE 8 Cloudy 24 101.8 7 89 5
0:00 E 8 Mostly Cloudy 24 101.8 6 90 5
22 November 2014
23:00 E 6 Mostly Cloudy 24 101.8 6 90 4
22:00 E 7 Cloudy 24 101.8 5 93 4
21:00 E 8 Mainly Clear 32 101.7 4 94 3
20:00 ENE 5 Mainly Clear 32 101.6 6 88 4
19:00 S 4 Partly Cloudy 32 101.6 7 89 5
18:00 SE 5 Partly Cloudy 24 101.5 6 92 4
17:00 NW 2 Partly Cloudy 48 101.4 7 92 5
16:00 WSW 8 gust 18 Partly Cloudy 48 101.3 8 88 6
15:00 WSW 6 Partly Cloudy 48 101.2 9 86 6
14:00 WSW 7 Partly Cloudy 48 101.1 9 79 6
13:00 WSW 6 Partly Cloudy 48 101.0 9 79 6
12:00 SW 3 Partly Cloudy 40 100.9 10 74 6
11:00 SSW 2 Partly Cloudy 40 100.7 10 73 5
10:00 ENE 5 Partly Cloudy 40 100.6 9 82 6
9:00 NNE 3 Mostly Cloudy 32 100.6 7 88 5
8:00 E 3 Partly Cloudy 24 100.4 6 91 5
7:00 SSE 5 Light Rainshower 19 100.4 7 86 5
6:00 SSE 6 Mostly Cloudy 24 100.3 6 92 5
5:00 SSE 4 Mostly Cloudy 24 100.2 7 89 5
 
Map of Pacific - Georgia Basin marine weather areas Tsawwassen Ferry Terminal Sentry Shoal - 46131 Halibut Bank - 46146 La Perouse Bank - 46206 Discovery Island Esquimalt Harbour Kelp Reefs Malahat Race Rocks Lightstation Saturna Island Sheringham Point University of Victoria Victoria Gonzales Victoria Int'l Airport Ballenas Islands Campbell River Airport Comox Airport Entrance Island Fanny Island Nanaimo Airport Sisters Islets Estevan Point Tofino Airport Grief Point Powell River Airport Sechelt Point Atkinson Sand Heads Lightstation Vancouver Harbour Vancouver Int'l Airport West Vancouver Port Alberni Howe Sound - Pam Rocks Squamish Airport